www.pogodaiklimat.ru

Погода и климат >> Архив погоды >> Корея >> Ульджин


ПОГОДА в Ульджине

  • Прогноз погоды в Ульджине
  • Монитор погоды в Ульджине

АРХИВ ПОГОДЫ в Ульджине

Время (UTC), дата Ветер
(напр.,м/с)
 
Видим.   Явления Облачность Т
(С)
Тd
(С)
f
(%)
Тe
(С)
Тes
(С)
Комфортность P
(гПа)
Po
(гПа)
Тmin
(С)
Tmax
(С)
R
(мм)
R24
(мм)
S
(см)
18 13.09 З 3 20 км 5/0
[]
+15.9 +14.5 91 +15 +15 1012.8 1007.0
21 13.09 ЮЗ 2 20 км 9//
[]
+18.1 +14.9 82 +19 +19 1012.1 1006.4
00 14.09 Ю 2 20 км 3/0
[]
+23.7 +16.2 63 +27 +32 жарко 1011.9 1006.3 +15.6
03 14.09 В 2 20 км 9/3
[]
+24.8 +18.0 66 +29 +35 душно 1010.7 1005.1
06 14.09 В 2 20 км ?/? +25.1 +19.9 73 +31 +31 очень
душно
1009.6 1004.0
09 14.09 Ю 2 18 км 10/8 2000 м
[]
+23.9 +20.8 83 +30 +30 очень
душно
1009.6 1004.0
12 14.09 СЗ 1 20 км ?/? +22.7 +21.1 91 +30 +30 очень
душно
1011.0 1005.4 +25.6
15 14.09 20 км н/о +21.9 +20.5 92 +28 +28 душно 1011.1 1005.5
18 14.09 З 3 20 км 9/9 1500 м
[]
+22.0 +19.9 88 +28 +28 душно 1010.8 1005.2
21 14.09 З 3 20 км 10/3 1000 м
[]
+22.0 +19.3 85 +27 +27 душно 1011.5 1005.9
00 15.09 З 4 16 км 9/9 300 м
[]
+22.5 +20.7 90 +29 +30 очень
душно
1012.7 1007.1 +21.4 0.1
03 15.09 С 3 9000 м 10/3 300 м
[]
+22.0 +20.4 91 +28 +32 душно 1012.5 1006.9
06 15.09 СЗ 4 20 км 9/9 1500 м
[]
+21.2 +18.9 87 +26 +27 душно 1012.3 1006.6 3
09 15.09 СЗ 3 20 км 5/1 2000 м
[]
+20.4 +16.0 76 +24 +24 комфорт 1011.9 1006.2
12 15.09 З 5 20 км 5/0 2000 м
[]
+18.7 +15.9 84 +19 +19 1012.6 1006.9 +24.2 3
15 15.09 З 2 20 км 4/3 2000 м
[]
+17.0 +16.1 94 +17 +17 1012.3 1006.5
18 15.09 З 2 20 км 4/0
[]
+16.1 +15.4 96 +16 +16 1011.4 1005.6
21 15.09 З 2 20 км 4/0
[]
+15.1 +13.2 88 +15 +15 1011.5 1005.7
00 16.09 СЗ 3 20 км 9/0
[]
+21.4 +15.0 67 +25 +27 комфорт 1012.2 1006.5 +14.9 0.0
03 16.09 20 км н/о +24.5 +8.8 37 +25 +33 комфорт 1012.0 1006.4
06 16.09 С 4 20 км 1/0
[]
+23.5 +14.7 58 +26 +32 жарко 1011.4 1005.8
09 16.09 С 7 20 км 3/0
[]
+20.9 +15.8 73 +24 +24 комфорт 1012.4 1006.7
12 16.09 СЗ 4 20 км 3/0
[]
+18.4 +14.4 78 +19 +19 1013.7 1008.0 +25.0
15 16.09 З 3 20 км 4/0
[]
+17.1 +14.1 83 +17 +17 1014.4 1008.6
18 16.09 З 4 20 км 3/0
[]
+17.2 +14.2 83 +17 +17 1014.7 1008.9
21 16.09 З 4 20 км 3/0
[]
+16.9 +14.5 86 +16 +16 1016.3 1010.5
00 17.09 СЗ 3 20 км 3/3 600 м
[]
+22.1 +16.5 71 +26 +30 душно 1017.4 1011.7 +16.5
03 17.09 СЗ 2 20 км ясно +25.7 +16.8 58 +29 +44 душно 1017.0 1011.4
06 17.09 С 3 20 км 1/0
[]
+24.1 +17.3 66 +28 +35 душно 1015.4 1009.8
09 17.09 СЗ 1 20 км 3/0
[]
+21.3 +16.6 75 +25 +25 комфорт 1015.7 1010.0
12 17.09 З 2 20 км ?/? +19.0 +16.9 88 +21 +21 комфорт 1016.4 1010.7 +25.9
15 17.09 З 1 20 км 10//
[]
+18.8 +16.4 86 +21 +21 комфорт 1015.5 1009.8
18 17.09 Ю 3 20 км ?/? +19.2 +15.2 78 +21 +21 комфорт 1014.0 1008.3
21 17.09 Ю 2 20 км 10/9
[]
+19.8 +14.1 70 +22 +22 комфорт 1013.7 1008.0
00 18.09 З 1 20 км ясно +24.9 +14.3 52 +27 +34 жарко 1014.7 1009.1 +16.9
03 18.09 СВ 2 20 км 1/0
[]
+25.8 +14.2 49 +28 +42 жарко 1014.4 1008.8
06 18.09 С 6 19 км 1/0
[]
+23.7 +16.7 65 +27 +30 жарко 1014.6 1009.0
09 18.09 20 км н/о +21.1 +15.6 71 +24 +24 комфорт 1016.6 1010.9
12 18.09 СЗ 6 19 км 9/9 600 м
[]
+19.6 +16.2 81 +21 +21 комфорт 1018.4 1012.7 +26.7 0.0
15 18.09 20 км н/о +19.0 +15.8 82 +21 +21 комфорт 1019.2 1013.5
18 18.09 н/о
21 18.09 н/о
00 19.09 н/о +18.9 0.0
03 19.09 н/о
06 19.09 н/о
09 19.09 Ю 2 20 км 5/0
[]
+20.6 +13.0 62 +24 +24 комфорт 1017.4 1011.7
12 19.09 Ю 2 20 км 9/0
[]
+18.5 +13.1 71 +20 +20 1017.9 1012.2 +22.4
15 19.09 ЮЗ 2 20 км 6/5
[]
+16.3 +13.5 83 +16 +16 1017.6 1011.8
18 19.09 З 2 20 км 9/0
[]
+15.3 +13.6 90 +15 +15 1017.8 1012.0
21 19.09 З 1 20 км 9//
[]
+15.5 +13.8 90 +16 +16 1017.9 1012.1
00 20.09 З 1 20 км 9/0
[]
+20.1 +15.9 77 +24 +27 комфорт 1019.1 1013.4 +15.1
03 20.09 В 3 20 км 10/0
[]
+21.7 +13.0 58 +24 +30 комфорт 1019.2 1013.5
06 20.09 В 6 20 км ?/? +21.5 +13.9 62 +24 +24 комфорт 1019.2 1013.5
09 20.09 В 5 20 км 10/0
[]
+21.5 +13.6 61 +24 +24 комфорт 1019.4 1013.7
12 20.09 В 2 20 км ?/? +20.5 +15.0 71 +24 +24 комфорт 1020.1 1014.4 +22.5
15 20.09 З 1 20 км 10/9 600 м
[]
+18.4 +15.6 84 +20 +20 1020.5 1014.7

 

Местоположение метеостанции Ульджин (Корея): широта 36.98 долгота 129.41 высота над уровнем моря 51 м.

В архиве по умолчанию представлена погода в Ульджине за последнюю неделю. Архивные данные за месяц целиком и за предыдущие месяцы, начиная с января 2011 года, Вы можете получить, выбрав интересующий диапазон дат из раскрывающегося списка и нажав кнопку "Ввод!".


*Определитесь, кто Вы:
робот инопланетянин человек

Внимание! Время в таблицах - всемирное. Для получения местного времени необходимо прибавить поправку, которая равна 9 ч.

Смотрите также архив погоды в соседних городах и на ближайших метеорологических станциях:

Погода в Донгхэ (Корея) (63 км)
Погода в Андоне (Корея) (77 км)
Погода в Йонволе (Корея) (87 км)
Погода на Перевале Daegwallyeong (Корея) (97 км)
Погода в Канныне (Корея) (97 км)
Погода в Пхохане (Корея) (106 км)
Погода в Санджу (Корея) (130 км)
Погода в Вонджу (Корея) (135 км)
Погода в Куми (Корея) (137 км)
Погода в Тэгу (Корея) (142 км)

Пояснения к столбцам:

Ветер - указаны скорость ветра в м/с - средняя за 10 мин, порывы в срок и между сроками (в фигурных скобках) и направление, откуда дует ветер: С - северный, СВ - северо-восточный, В - восточный, ЮВ - юго-восточный, Ю - южный, ЮЗ - юго-западный, З - западный, СЗ - северо-западный.
Видимость - горизонтальная дальность видимости в метрах или километрах. При видимости от 1 до 10 км при отсутствии осадков обычно наблюдается дымка, при ухудшении видимости до 1 км и менее - туман. В сухую погоду видимость может ухудшаться дымом, пылью или мглою.
Явления - указаны атмосферные явления, наблюдавшиеся в срок или в последний час перед сроком; фигурными скобками обозначены явления, наблюдавшиеся между сроками (за 1-3 часа до срока); квадратными скобками обозначены град или гололедные отложения с указанием их диаметра в мм.
Облачность - указаны через наклонную черту общая и нижняя облачность в баллах и высота нижней границы облаков в метрах; квадратными скобками обозначены формы облаков: Ci - перистые, Cs - перисто-слоистые, Cc - перисто-кучевые, Ac - высококучевые, As - высокослоистые, Sc - слоисто-кучевые, Ns - слоисто-дождевые, Cu - кучевые, Cb - кучево-дождевые. Подробнее классификацию облаков см. в Атласе облаков (PDF).
T - Температура воздуха - температура, измеренная на высоте 2 м над землей.
Td - Температура точки росы - температура, при понижении до которой содержащийся в воздухе водяной пар достигнет насыщения.
f - Относительная влажность воздуха - влажноcть воздуха, измеренная на высоте 2 м над землей.
Te - Эффективная температура - температура, которую ощущает одетый по сезону человек в тени. Характеристика душности погоды. При расчете учитывается влияние влажности воздуха и скорости ветра на теплоощущения человека.
Tes - Эффективная температура на солнце - температура, которую ощущает человек, с поправкой на солнечный нагрев. Характеристика знойности погоды. Зависит от высоты солнца над горизонтом, облачности и скорости ветра. Ночью, в пасмурную погоду, а также при ветре 12 м/с и более поправка равна нулю.
P - Атмосферное давление - приведенное к уровню моря атмосферное давление.
Po - Атмосферное давление - измеренное на уровне метеостанции атмосферное давление.
Tmin - Минимальная температура - минимум температуры воздуха на высоте 2 м над землей.
Tmax - Максимальная температура - максимум температуры воздуха на высоте 2 м над землей.
R - Количество осадков - Количество выпавших осадков за период времени, мм. При наведении курсора мыши на число - период времени, за который выпало указанное количество осадков.
R24 - Количество осадков - Количество выпавших осадков за 24 часа, мм.
S - Снежный покров - Высота снежного покрова, см. При наведении курсора мыши на число - состояние снежного покрова и степень покрытия местности в баллах.